Atoka, OK

6:53 PM CST on December 05, 2019 (GMT -0600)
Atoka Municipal

Weather History for KAQR - November, 2019

Change the Weather History Date:

Thursday, November 21, 2019

  Actual Average (WUND) Record (WUND)
Temperature  
Mean Temperature 52 °F -  
Max Temperature 62 °F - - (-1)
Min Temperature 42 °F - - (-1)
Degree Days  
Heating Degree Days 13    
Growing Degree Days 2 (Base 50)    
Moisture  
Dew Point 55 °F    
Average Humidity 100    
Maximum Humidity 100    
Minimum Humidity 94    
Precipitation  
Precipitation 0.66 in - - ()
Sea Level Pressure  
Sea Level Pressure 29.99 in    
Wind  
Wind Speed 5 mph (ENE)    
Max Wind Speed 14 mph    
Max Gust Speed 20 mph    
Visibility 8 miles    
Events Rain , Thunderstorm    
Averages and records for this station are not official NWS values.
T = Trace of Precipitation, MM = Missing Value Source: NWS Daily Summary

Daily Weather History Graph

Daily Weather History Graph

Search for Another Location

Airport or City:

Astronomy

Nov. 21, 2019 Rise Set
Actual Time 7:03 AM CST 5:17 PM CST
Civil Twilight 6:36 AM CST 5:44 PM CST
Nautical Twilight 6:05 AM CST 6:14 PM CST
Astronomical Twilight 5:35 AM CST 6:44 PM CST
Moon 1:19 AM CST (11/21) 2:29 PM CST (11/21)
Length of Visible Light 11h 07m
Length of Day
10h 13m
Waning Crescent, 29% of the Moon is Illuminated
Nov 21
Waning Crescent
Nov 26
New
Dec 4
First Quarter
Dec 11
Full
Dec 18
Last Quarter

Hourly Weather History & Observations

Time (CST) Temp. Windchill Dew Point Humidity Pressure Visibility Wind Dir Wind Speed Gust Speed Precip Events Conditions
12:15 AM 60.8 °F - 59.0 °F 94% 29.97 in 10.0 mi SSE 5.8 mph - N/A   Overcast
12:35 AM 60.8 °F - 59.0 °F 94% 29.97 in 10.0 mi SSE 4.6 mph - N/A   Mostly Cloudy
12:55 AM 60.8 °F - 59.0 °F 94% 29.97 in 10.0 mi SSE 5.8 mph - N/A   Mostly Cloudy
1:15 AM 60.8 °F - 59.0 °F 94% 29.96 in 10.0 mi SSE 4.6 mph - N/A   Mostly Cloudy
1:35 AM 59.0 °F - 59.0 °F 100% 29.96 in 10.0 mi SSE 3.5 mph - N/A   Scattered Clouds
1:55 AM 59.0 °F - 59.0 °F 100% 29.96 in 10.0 mi SSE 4.6 mph - N/A   Scattered Clouds
2:35 AM 59.0 °F - 59.0 °F 100% 29.96 in 10.0 mi SSE 5.8 mph - N/A   Mostly Cloudy
2:55 AM 59.0 °F - 59.0 °F 100% 29.96 in 10.0 mi SSE 6.9 mph - N/A   Scattered Clouds
3:15 AM 59.0 °F - 59.0 °F 100% 29.96 in 10.0 mi SSE 4.6 mph - N/A   Mostly Cloudy
3:35 AM 59.0 °F - 59.0 °F 100% 29.96 in 10.0 mi SSE 3.5 mph - N/A   Mostly Cloudy
3:55 AM 59.0 °F - 59.0 °F 100% 29.96 in 10.0 mi SSE 3.5 mph - N/A   Overcast
4:35 AM 59.0 °F - 59.0 °F 100% 29.97 in 10.0 mi Calm Calm - N/A   Overcast
4:55 AM 59.0 °F - 59.0 °F 100% 29.97 in 10.0 mi Calm Calm - N/A   Overcast
5:15 AM 59.0 °F - 59.0 °F 100% 29.97 in 10.0 mi Calm Calm - N/A   Overcast
5:35 AM 59.0 °F - 59.0 °F 100% 29.98 in 10.0 mi Calm Calm - N/A   Overcast
5:55 AM 59.0 °F - 59.0 °F 100% 29.98 in 10.0 mi Calm Calm - N/A   Overcast
6:15 AM 60.8 °F - 60.8 °F 100% 29.99 in 10.0 mi SE 3.5 mph - N/A   Overcast
6:35 AM 59.0 °F - 59.0 °F 100% 29.99 in 10.0 mi SSE 3.5 mph - N/A   Scattered Clouds
7:15 AM 59.0 °F - 59.0 °F 100% 30.00 in 10.0 mi Calm Calm - N/A   Overcast
7:35 AM 60.8 °F - 60.8 °F 100% 30.00 in 10.0 mi SSE 5.8 mph - N/A   Overcast
7:55 AM 60.8 °F - 60.8 °F 100% 30.01 in 10.0 mi SSE 5.8 mph - N/A   Overcast
8:15 AM 60.8 °F - 60.8 °F 100% 30.01 in 10.0 mi South 5.8 mph - N/A   Overcast
8:35 AM 60.8 °F - 60.8 °F 100% 30.02 in 10.0 mi SSE 5.8 mph - N/A   Overcast
8:55 AM 62.6 °F - 62.6 °F 100% 30.02 in 10.0 mi NE 4.6 mph - N/A   Overcast
9:15 AM 62.6 °F - 62.6 °F 100% 30.02 in 10.0 mi East 4.6 mph - N/A   Overcast
9:35 AM 62.6 °F - 62.6 °F 100% 30.02 in 10.0 mi NE 3.5 mph - N/A   Overcast
10:35 AM 62.6 °F - 62.6 °F 100% 30.02 in 10.0 mi SSE 4.6 mph - N/A   Overcast
10:55 AM 62.6 °F - 62.6 °F 100% 30.01 in 10.0 mi SE 3.5 mph - N/A   Overcast
11:15 AM 62.6 °F - 62.6 °F 100% 30.00 in 10.0 mi SSE 3.5 mph - N/A   Overcast
11:35 AM 62.6 °F - 62.6 °F 100% 30.00 in 7.0 mi Calm Calm - N/A Rain Light Rain
12:15 PM 60.8 °F - 60.8 °F 100% 29.98 in 7.0 mi Calm Calm - N/A Rain Light Rain
12:55 PM 60.8 °F - 60.8 °F 100% 29.96 in 7.0 mi Calm Calm - N/A   Overcast
1:15 PM 60.8 °F - 60.8 °F 100% 29.95 in 7.0 mi Calm Calm - N/A Rain Light Rain
1:35 PM 60.8 °F - 60.8 °F 100% 29.93 in 3.0 mi East 4.6 mph - 0.01 in Rain Rain
1:55 PM 60.8 °F - 60.8 °F 100% 29.94 in 2.5 mi Calm Calm - 0.01 in Thunderstorm Drizzle
2:15 PM 60.8 °F - 60.8 °F 100% 29.93 in 2.0 mi NW 5.8 mph - 0.02 in Rain , Thunderstorm Rain
2:55 PM 50.0 °F - 50.0 °F 100% 29.95 in 3.0 mi North 9.2 mph - 0.23 in Rain , Thunderstorm Thunderstorms and Rain
3:15 PM 50.0 °F - 50.0 °F 100% 29.96 in 7.0 mi NNW 6.9 mph - N/A Rain , Thunderstorm Rain
3:35 PM 50.0 °F - 50.0 °F 100% 29.97 in 4.0 mi NNW 9.2 mph - 0.03 in Rain Rain
3:55 PM 50.0 °F - 50.0 °F 100% 29.97 in 5.0 mi NNW 8.1 mph - 0.04 in   Drizzle
4:15 PM 50.0 °F - 50.0 °F 100% 29.98 in 4.0 mi North 6.9 mph - 0.01 in Rain Rain
4:35 PM 50.0 °F - 50.0 °F 100% 29.98 in 10.0 mi North 8.1 mph - 0.01 in   Light Drizzle
4:55 PM 48.2 °F - 48.2 °F 100% 29.98 in 5.0 mi North 11.5 mph - 0.01 in Rain Light Rain
5:15 PM 46.4 °F 41.9 °F 46.4 °F 100% 29.99 in 4.0 mi North 9.2 mph - N/A Rain Heavy Rain
6:15 PM 46.4 °F 43.5 °F 46.4 °F 100% 30.00 in 3.0 mi North 5.8 mph - 0.01 in Rain Rain
6:35 PM 46.4 °F 44.3 °F 46.4 °F 100% 30.01 in 5.0 mi North 4.6 mph - 0.03 in Rain Rain
6:55 PM 46.4 °F 41.5 °F 46.4 °F 100% 30.01 in 7.0 mi North 10.4 mph - 0.04 in Rain Rain
7:55 PM 44.6 °F 38.1 °F 44.6 °F 100% 30.03 in 1.0 mi North 13.8 mph 19.6 mph 0.20 in Rain Heavy Rain
8:15 PM 44.6 °F 39.7 °F 44.6 °F 100% 30.04 in 3.0 mi North 9.2 mph 16.1 mph 0.05 in Rain Heavy Rain
8:35 PM 44.6 °F 39.7 °F 44.6 °F 100% 30.03 in 7.0 mi North 9.2 mph 16.1 mph 0.06 in Rain , Thunderstorm Light Thunderstorms and Rain
8:55 PM 44.6 °F 40.2 °F 44.6 °F 100% 30.04 in 7.0 mi North 8.1 mph - 0.06 in   Drizzle
9:15 PM 44.6 °F 40.2 °F 44.6 °F 100% 30.04 in 5.0 mi North 8.1 mph - 0.01 in Thunderstorm Drizzle
9:35 PM 44.6 °F 40.7 °F 44.6 °F 100% 30.04 in 7.0 mi North 6.9 mph - 0.01 in   Light Drizzle
9:55 PM 42.8 °F 37.5 °F 42.8 °F 100% 30.04 in 5.0 mi North 9.2 mph - 0.01 in Thunderstorm Drizzle
10:15 PM 42.8 °F 38.0 °F 42.8 °F 100% 30.05 in 7.0 mi North 8.1 mph - N/A   Drizzle
10:35 PM 42.8 °F 37.0 °F 42.8 °F 100% 30.06 in 10.0 mi North 10.4 mph - 0.01 in Rain Light Rain
10:55 PM 42.8 °F 37.0 °F 42.8 °F 100% 30.07 in 4.0 mi North 10.4 mph 17.3 mph 0.06 in Rain Light Rain
11:15 PM 42.8 °F 36.6 °F 42.8 °F 100% 30.06 in 5.0 mi NNE 11.5 mph 16.1 mph N/A   Light Drizzle
11:55 PM 42.8 °F 36.6 °F 42.8 °F 100% 30.06 in 4.0 mi North 11.5 mph 16.1 mph N/A   Overcast